Regional Weather Roundup
Issued by NWS

Home | Current Version | Previous Version | Graphics & Text | Print | Product List | Glossary Off
Versions: 1 2 3 4 5 6 7 8 9 10 11 12 13 14 15 16 17 18 19 20 21 22 23 24 25 26 27 28 29 30 31 32 33 34 35 36 37 38 39 40 41 42 43 44 45 46 47 48 49 50

000
ASUS43 KDTX 221101
RWRMI
MICHIGAN HOURLY REGIONAL WEATHER ROUNDUP
NATIONAL WEATHER SERVICE DETROIT/PONTIAC MI
700 AM EDT FRI SEP 22 2017

NOTE: "FAIR" INDICATES FEW OR NO CLOUDS BELOW 12,000 FEET WITH NO
SIGNIFICANT WEATHER AND/OR OBSTRUCTION TO VISIBILITY.

MIZ047>049-052>055-059>063-066>070-074>076-081>083-221200-
SOUTHEAST LOWER MICHIGAN

CITY           SKY/WX    TMP DP  RH WIND       PRES   REMARKS
ADRIAN         CLEAR     66  65  96 CALM      30.12S FOG
ALMA             N/A     61  59  95 CALM      30.11S FOG
ANN ARBOR      CLOUDY    65  65 100 CALM      30.12R
BAD AXE        CLEAR     65  62  90 SE3       30.13S
CARO           CLEAR     61  59  95 CALM      30.12R FOG
DETROIT CITY   CLEAR     68  67  96 CALM      30.12S
DETROIT        MOCLDY    68  65  90 NE3       30.12S
FLINT          CLOUDY    65  63  93 CALM      30.12R
GROSSE ILE     CLEAR     67  64  90 CALM      30.10S
HILLSDALE      FOG       64  63  94 CALM      30.12S VSB 1/2
HOWELL         CLOUDY    68  65  90 SE3       30.12S

CITY           SKY/WX    TMP DP  RH WIND       PRES   REMARKS
JACKSON        CLOUDY    69  66  90 CALM      30.12R FOG
LAMBERTVILLE   FOG       67  65  92 CALM      30.10S VSB 3/4
LANSING        CLEAR     66  63  90 SE3       30.12R FOG
LAPEER         FAIR      63  62  96 CALM      30.13R
MASON          PTCLDY    69  67  91 E7        30.11S FOG
MONROE         CLEAR     67  65  92 CALM      30.10S FOG
MT. CLEMENS    CLOUDY    65  65 100 CALM      30.11S
PONTIAC        MOCLDY    67  65  93 CALM      30.12S
PORT HOPE        N/A     66  61  84 S5        30.11R
PORT HURON     CLOUDY    64  63  94 CALM      30.13S FOG
TRI CITIES     CLEAR     65  63  93 CALM      30.11S
MIDLAND        FAIR      62  62  99 CALM      30.10R
TROY           CLOUDY    69  66  89 E3        30.14R
SAGINAW HB     CLEAR     61  61 100 CALM      30.10S
$$
MIZ043>046-050>051-056>058-064>065-071>073-077>080-221200-
SOUTHWEST LOWER MICHIGAN

CITY           SKY/WX    TMP DP  RH WIND       PRES   REMARKS
BATTLE CREEK   CLEAR     67  65  93 CALM      30.11S
BENTON HARBOR  CLEAR     70  66  87 CALM      30.07R
BIG RAPIDS     CLEAR     62  60  93 CALM      30.10S
COLDWATER      CLEAR     67  67 100 CALM      30.11S FOG
FREMONT        FAIR      67  65  96 E3        30.08S
HOLLAND        CLEAR     68  64  87 SE3       30.08R
GRAND RAPIDS   PTCLDY    66  64  93 CALM      30.09S
IONIA          FAIR      62  62  99 SE3       30.10R
KALAMAZOO      CLEAR     66  63  90 CALM      30.10S FOG
LUDINGTON      CLEAR     65  64  96 CALM      30.06R
MARSHALL       CLEAR     66  65  98 CALM      30.11R FOG
MOUNT PLEASANT   N/A     64  62  95 CALM      30.10S FOG
MUSKEGON       PTCLDY    70  65  84 CALM      30.08R
SOUTH HAVEN    CLEAR     70  67  92 CALM      30.07S
$$
MIZ016>042-221200-
NORTHERN LOWER MICHIGAN

CITY           SKY/WX    TMP DP  RH WIND       PRES   REMARKS
ALPENA         FOG       61  61 100 CALM      30.09R VSB 3/4
BEAVER ISLAND  PTCLDY    69  67  94 S5        30.04S
BELLAIRE       CLEAR     60  59  96 CALM      30.06S
CADILLAC       CLEAR     62  58  88 CALM      30.10S
CHARLEVOIX     CLEAR     67  67 100 SE3       30.08S
FRANKFORT      CLEAR     76  70  80 S6        30.05S
GAYLORD        CLEAR     67  65  93 S3        30.10S FOG
GRAYLING         N/A     60  58  94 CALM      30.11S FOG
HARBOR SPRINGS PTCLDY    64  62  95 CALM      30.07R
HOUGHTON LAKE  CLEAR     62  60  93 E3        30.12R
MANISTEE       PTCLDY    64  63  96 E5        30.06R
OSCODA         CLEAR     64  64 100 SW3       30.11R FOG
PELLSTON       FOG       59  59 100 CALM      30.07R VSB 1/2
ROGERS CITY    CLEAR     66  65  97 CALM      30.08S
TRAVERSE CITY  PTCLDY    70  64  81 CALM      30.04S
$$
MIZ007>008-015-221200-
EASTERN UPPER MICHIGAN

CITY           SKY/WX    TMP DP  RH WIND       PRES   REMARKS
KINROSS        CLOUDY    64  63  96 SE6       30.07R FOG
MACKINAC ISLAN CLOUDY    70  69  97 S9        30.06R
NEWBERRY       CLEAR     65  64  97 S8        30.04R FOG
S. S. MARIE    CLOUDY    64  63  96 CALM      30.06S FOG
MUNISING         N/A     67  67 100 SW6       29.99S
$$
MIZ004>006-011>014-085-221200-
CENTRAL UPPER MICHIGAN

CITY           SKY/WX    TMP DP  RH WIND       PRES   REMARKS
MANISTIQUE     CLEAR     66  60  81 SE9       30.03R
ESCANABA       FOG       60  60 100 CALM      30.01R VSB 1/2
MENOMINEE      FOG       62  62 100 CALM      30.02R VSB 1/4
SAWYER-GWINN   FOG       63  63 100 S8        30.01S VSB 3/4
$$
MIZ001>003-009>011-084-221200-
WESTERN UPPER MICHIGAN

CITY           SKY/WX    TMP DP  RH WIND       PRES   REMARKS
IRON MOUNTAIN  CLOUDY    64  62  93 SE3       30.00R FOG
HOUGHTON       CLOUDY    63  60  90 SE3       29.92F
COPPER HARBOR    N/A     64  62  93 SW13G20   29.90F
IRONWOOD       CLOUDY    70  66  87 VRB6      29.92F
$$

ABBREVIATIONS USED IN REMARKS
   TC - TEMPERATURE IN CELSIUS
  WCI - WIND CHILL INDEX
   HX - HEAT INDEX
  VSB - VISIBILITY





USA.gov is the U.S. government's official web portal to all federal, state and local government web resources and services.